Location: Unspecified
(48.5670°N, 0.0000°E)
Time: 00:34:57
(UTC+00:00)

Altair - Pass Details

Date: 25 August 2019
Orbit: 1501 x 1682 km, 47.2° (Epoch: 22 October)

Event Time Altitude Azimuth Distance (km) Brightness Sun altitude
Exits shadow 04:04:25 11° 250° (WSW) 3,728 8.9 -10.3°
Maximum altitude 04:13:48 78° 167° (SSE) 1,611 7.6 -8.9°
Drops below altitude 10° 04:23:12 10° 83° (E) 3,712 10.9 -7.5°
Sets 04:26:12 0° 82° (E) 4,677 11.7 -7.1°
